Regional Weather Roundup
Issued by NWS

Home | Current Version | Previous Version | Text Only | Print | Product List | Glossary Off
Versions: 1 2 3 4 5 6 7 8 9 10 11 12 13 14 15 16 17 18 19 20 21 22 23 24 25 26 27 28 29 30 31 32 33 34 35 36 37 38 39 40 41 42 43 44 45 46 47 48 49 50

000
ASUS43 KMKX 181900
RWRWI

WISCONSIN REGIONAL WEATHER ROUNDUP
NATIONAL WEATHER SERVICE MILWAUKEE/SULLIVAN WI
100 PM CST MON DEC 18 2017

NOTE: "FAIR" INDICATES FEW OR NO CLOUDS BELOW 12,000 FEET WITH NO
SIGNIFICANT WEATHER AND/OR OBSTRUCTIONS TO VISIBILITY.

WIZ001-002-006>008-014>016-023>028-182000-
NORTHWEST WISCONSIN

CITY           SKY/WX    TMP DP  RH WIND       PRES   REMARKS
SUPERIOR ARPT  PTSUNNY   33  28  79 SW10G17   29.63F WCI  25
ASHLAND        CLOUDY    34  27  75 S18       29.63F WCI  23
HAYWARD        PTSUNNY   33  26  75 S14       29.65F WCI  23
SIREN          CLOUDY    35  27  73 SW10      29.68F WCI  27
CUMBERLAND     CLOUDY    32  27  80 SW15      29.69F WCI  22
RICE LAKE      CLOUDY    32  28  85 S6        29.71F WCI  27
CHETEK         CLOUDY    32  28  85 S8        29.72F WCI  25
LADYSMITH      CLOUDY    32  29  90 S12       29.72F FOG     WCI  23
EAU CLAIRE     NOT AVBL
MENOMONIE      MOSUNNY   33  29  83 S10G17    29.74F WCI  25
NEW RICHMOND   MOSUNNY   34  27  75 SW12G17   29.71F WCI  25
OSCEOLA        PTSUNNY   34  28  77 S8        29.74F WCI  27
$$

WIZ003>005-009-010-017-018-182000-
NORTH CENTRAL WISCONSIN

CITY           SKY/WX    TMP DP  RH WIND       PRES   REMARKS
MANITOWISH WTR CLOUDY    28  28 100 S12       29.67F FOG     WCI  17
ARBOR VITAE    CLOUDY    30  29  95 SW7       29.68F FOG     WCI  23
WOODRUFF       CLOUDY    30  29  95 SW7       29.68F FOG     WCI  23
RHINELANDER    CLOUDY    28  28 100 SW8       29.70F FOG     WCI  20
EAGLE RIVER    CLOUDY    28  28 100 SW10      29.68F FOG     WCI  19
LAND O LAKES   CLOUDY    30  28  94 SW9       29.68F FOG     WCI  22
PHILLIPS       CLOUDY    28  28 100 SW7       29.68F FOG     WCI  21
TOMAHAWK       CLOUDY    28  26  92 CALM      29.71F FOG
MEDFORD        FOG       28  27  99 S7        29.72F VSB 1   WCI  20
MERRILL        CLOUDY    29  29  98 SW8       29.74F FOG     WCI  21
$$

WIZ029-030-035-036-043>047-182000-
CENTRAL WISCONSIN

CITY           SKY/WX    TMP DP  RH WIND       PRES   REMARKS
WAUSAU         CLOUDY    28  27  96 SW10      29.74F FOG     WCI  19
MOSINEE        CLOUDY    28  28 100 S8        29.77F FOG     WCI  20
MARSHFIELD     CLOUDY    29  29 100 SW9       29.74F FOG     WCI  20
STEVENS POINT  CLOUDY    28  28 100 SW6       29.79F FOG     WCI  21
WAUPACA        CLOUDY    34  30  86 SW8G16    29.79F FOG     WCI  27
WAUTOMA        CLOUDY    34  28  79 SW12      29.80F WCI  25
WISC RAPIDS    CLOUDY    30  27  88 SW9       29.80F WCI  22
CAMP DOUGLAS   NOT AVBL
$$

WIZ011>013-019>022-031-037>040-048>050-182000-
NORTHEAST WISCONSIN

CITY           SKY/WX    TMP DP  RH WIND       PRES   REMARKS
ANTIGO         CLOUDY    28  28 100 W7        29.73F FOG     WCI  20
SHAWANO        CLOUDY    33  29  86 SW9       29.78S FOG     WCI  25
OCONTO         CLOUDY    31  28  88 SW8       29.77F WCI  24
STURGEON BAY   CLOUDY    32  28  85 SW17      29.77F WCI  21
GREEN BAY      CLOUDY    33  28  81 SW10      29.79F HAZE    WCI  25
MANITOWOC      CLOUDY    34  30  85 W10G22      N/A  FOG     WCI  26
APPLETON       CLOUDY    32  30  93 SW12G17   29.78F FOG     WCI  23
CLINTONVILLE   CLOUDY    30  28  93 W12       29.79F FOG     WCI  21
OSHKOSH        CLOUDY    34  29  82 SW8       29.80F HAZE    WCI  27
$$

WIZ032>034-041-042-053>061-182000-
SOUTHWEST WISCONSIN

CITY           SKY/WX    TMP DP  RH WIND       PRES   REMARKS
LA CROSSE      MOSUNNY   34  28  79 S9        29.80F WCI  27
SPARTA         CLOUDY    32  29  89 S6        29.82F WCI  26
VIROQUA        MOSUNNY   33  31  92 CALM      29.80F
BOSCOBEL       MOSUNNY   39  29  67 W6        29.85F WCI  35
PRAIRIE DU CHI MOSUNNY   39  28  63 S6        29.85F WCI  35
PLATTEVILLE    CLOUDY    38  32  79 SW15      29.87F WCI  29
$$

WIZ056-057-062-063-064-067-068-182000-
SOUTH CENTRAL WISCONSIN

CITY           SKY/WX    TMP DP  RH WIND       PRES   REMARKS
REEDSBURG      CLOUDY    35  28  78 W10       29.81F WCI  27
BARABOO/DELLS  CLOUDY    34  28  79 W10G17    29.82F WCI  26
LONE ROCK      MOSUNNY   38  30  73 SW12      29.86F HAZE    WCI  30
MINERAL POINT  CLOUDY    36  34  93 SW14      29.85F FOG     WCI  27
MADISON        CLOUDY    35  31  85 SW9       29.85F FOG     WCI  28
MIDDLETON      CLOUDY    37  32  84 W12G17    29.85F WCI  29
WATERTOWN      CLOUDY    34  34 100 SW10      29.85R FOG     WCI  26
MONROE         CLOUDY    34  32  93 SW16      29.86F FOG     WCI  23
JANESVILLE     CLOUDY    37  36  93 SW13      29.87F FOG     WCI  29
$$

WIZ051-052-058>065-066-070>072-182000-
SOUTHEAST WISCONSIN

CITY           SKY/WX    TMP DP  RH WIND       PRES   REMARKS
MILWAUKEE      CLOUDY    38  33  82 SW13      29.84F HAZE    WCI  30
WAUKESHA       CLOUDY    34  30  86 SW12      29.85S FOG     WCI  25
MILWAUKEE/TIMM CLOUDY    36  30  80 W10       29.85F FOG     WCI  28
RACINE         CLOUDY    41  34  76 W12G21    29.85F
BURLINGTON       N/A     45  40  82 W13       29.85F
KENOSHA        MOSUNNY   44  33  65 W17       29.84F
FOND DU LAC    CLOUDY    34  29  82 W13G18    29.82F WCI  25
SHEBOYGAN      CLOUDY    33  31  92 W16       29.81F FOG     WCI  23
WEST BEND      CLOUDY    34  32  93 W16       29.82F FOG     WCI  23
JUNEAU         CLOUDY    33  31  94 SW18      29.85S FOG     WCI  21
$$

LSZ147-162-182000-
LAKE SUPERIOR

STATION/POSITION TIME  TEMP    WIND        PRES    WAVE
                       AIR SEA DIR/SP/G            HT/PER
                 (UTC) (F)     (DEG/KT/KT) (MB)    (FT/S)
DEVILS ISLAND    1800   33     240/ 16/ 19 1004.1F
SAXON HARBOR     1840   36                 1003.4F
$$

LMZ867-665-643>646-182000-
LAKE MICHIGAN

STATION/POSITION TIME  TEMP    WIND        PRES    WAVE
                       AIR SEA DIR/SP/G            HT/PER
                 (UTC) (F)     (DEG/KT/KT) (MB)    (FT/S)
NORTHPORT PIER   1840   31      CALM  / 12 1007.5F
KEWAUNEE LAKESHO 1830   32     240/  5/ 10 1008.3F
SHEBOYGAN LAKESH 1800   34     240/ 11/ 15 1010.4F
PORT WASHINGTON  1830   36     250/  9/ 15 1011.2F
MILWAUKEE LAKESH 1830   37     240/ 12/ 15   N/A
KENOSHA   LAKESH 1800   41     260/ 13/ 19 1011.5
$$

TC  - TEMPERATURE IN CELSIUS
VSB - VISIBILITY IN STATUTE MILES
WCI - WIND CHILL INDEX
HX  - HEAT INDEX




USA.gov is the U.S. government's official web portal to all federal, state and local government web resources and services.